Time,TemperatureF,DewpointF,PressureIn,WindDirection,WindDirectionDegrees,WindSpeedMPH,WindSpeedGustMPH,Humidity,HourlyPrecipIn,Conditions,Clouds,dailyrainin,SolarRadiationWatts/m^2,SoftwareType,DateUTC
2013-01-14 00:04:00,49.0,49.0,-100.00,ENE,65,1.0,5.0,100,0.00,,,0.00,0.000000,,2013-01-14 05:04:00,
2013-01-14 00:12:00,49.0,49.0,-100.00,ENE,65,1.0,5.0,100,0.00,,,0.00,0.000000,,2013-01-14 05:12:00,
2013-01-14 00:33:00,49.0,49.0,-100.00,WNW,303,1.0,4.0,100,0.00,,,0.00,0.000000,,2013-01-14 05:33:00,
2013-01-14 00:43:00,49.0,49.0,-100.00,WNW,303,1.0,4.0,100,0.00,,,0.00,0.000000,,2013-01-14 05:43:00,
2013-01-14 00:53:00,49.0,49.0,-100.00,WNW,303,1.0,4.0,100,0.00,,,0.00,0.000000,,2013-01-14 05:53:00,
2013-01-14 01:03:00,49.0,49.0,-100.00,WNW,303,1.0,4.0,100,0.00,,,0.00,0.000000,,2013-01-14 06:03:00,
2013-01-14 01:12:00,49.0,49.0,-100.00,WNW,303,1.0,4.0,100,0.00,,,0.00,0.000000,,2013-01-14 06:12:00,
2013-01-14 01:33:00,50.0,50.0,-100.00,ENE,67,1.0,4.0,100,0.00,,,0.00,0.000000,,2013-01-14 06:33:00,
2013-01-14 01:43:00,50.0,50.0,-100.00,ENE,67,1.0,4.0,100,0.00,,,0.00,0.000000,,2013-01-14 06:43:00,
2013-01-14 01:53:00,50.0,50.0,-100.00,ENE,67,1.0,4.0,100,0.00,,,0.00,0.000000,,2013-01-14 06:53:00,
2013-01-14 02:02:00,50.0,50.0,-100.00,ENE,67,1.0,4.0,100,0.00,,,0.00,0.000000,,2013-01-14 07:02:00,
2013-01-14 02:12:00,50.0,50.0,-100.00,ENE,67,1.0,4.0,100,0.00,,,0.00,0.000000,,2013-01-14 07:12:00,
2013-01-14 02:33:00,51.0,51.0,-100.00,ENE,69,6.0,9.0,100,0.03,,,0.03,0.000000,,2013-01-14 07:33:00,
2013-01-14 02:43:00,51.0,51.0,-100.00,ENE,69,6.0,9.0,100,0.03,,,0.03,0.000000,,2013-01-14 07:43:00,
2013-01-14 02:53:00,51.0,51.0,-100.00,ENE,69,6.0,9.0,100,0.03,,,0.03,0.000000,,2013-01-14 07:53:00,
2013-01-14 03:02:00,51.0,51.0,-100.00,ENE,69,6.0,9.0,100,0.03,,,0.03,0.000000,,2013-01-14 08:02:00,
2013-01-14 03:12:00,51.0,51.0,-100.00,ENE,69,6.0,9.0,100,0.03,,,0.03,0.000000,,2013-01-14 08:12:00,
2013-01-14 03:33:00,51.0,51.0,-100.00,NNE,13,4.0,9.0,100,0.01,,,0.04,0.000000,,2013-01-14 08:33:00,
2013-01-14 03:43:00,51.0,51.0,-100.00,NNE,13,4.0,9.0,100,0.01,,,0.04,0.000000,,2013-01-14 08:43:00,
2013-01-14 03:53:00,51.0,51.0,-100.00,NNE,13,4.0,9.0,100,0.01,,,0.04,0.000000,,2013-01-14 08:53:00,
2013-01-14 04:03:00,51.0,51.0,-100.00,NNE,13,4.0,9.0,100,0.01,,,0.04,0.000000,,2013-01-14 09:03:00,
2013-01-14 04:12:00,51.0,51.0,-100.00,NNE,13,4.0,9.0,100,0.01,,,0.04,0.000000,,2013-01-14 09:12:00,
2013-01-14 04:34:00,51.0,51.0,-100.00,NE,37,2.0,5.0,100,0.00,,,0.04,0.000000,,2013-01-14 09:34:00,
2013-01-14 04:43:00,51.0,51.0,-100.00,NE,37,2.0,5.0,100,0.00,,,0.04,0.000000,,2013-01-14 09:43:00,
2013-01-14 04:53:00,51.0,51.0,-100.00,NE,37,2.0,5.0,100,0.00,,,0.04,0.000000,,2013-01-14 09:53:00,
2013-01-14 05:02:00,51.0,51.0,-100.00,NE,37,2.0,5.0,100,0.00,,,0.04,0.000000,,2013-01-14 10:02:00,
2013-01-14 05:12:00,51.0,51.0,-100.00,NE,37,2.0,5.0,100,0.00,,,0.04,0.000000,,2013-01-14 10:12:00,
2013-01-14 05:33:00,50.0,50.0,-100.00,ENE,68,3.0,5.0,100,0.00,,,0.04,0.000000,,2013-01-14 10:33:00,
2013-01-14 05:43:00,50.0,50.0,-100.00,ENE,68,3.0,5.0,100,0.00,,,0.04,0.000000,,2013-01-14 10:43:00,
2013-01-14 05:53:00,50.0,50.0,-100.00,ENE,68,3.0,5.0,100,0.00,,,0.04,0.000000,,2013-01-14 10:53:00,
2013-01-14 06:02:00,50.0,50.0,-100.00,ENE,68,3.0,5.0,100,0.00,,,0.04,0.000000,,2013-01-14 11:02:00,
2013-01-14 06:12:00,50.0,50.0,-100.00,ENE,68,3.0,5.0,100,0.00,,,0.04,0.000000,,2013-01-14 11:12:00,
2013-01-14 06:43:00,50.0,50.0,-100.00,NW,319,3.0,6.0,100,0.00,,,0.04,0.000000,,2013-01-14 11:43:00,
2013-01-14 06:53:00,50.0,50.0,-100.00,NW,319,3.0,6.0,100,0.00,,,0.04,0.000000,,2013-01-14 11:53:00,
2013-01-14 07:03:00,50.0,50.0,-100.00,NW,319,3.0,6.0,100,0.00,,,0.04,0.000000,,2013-01-14 12:03:00,
2013-01-14 07:12:00,50.0,50.0,-100.00,NW,319,3.0,6.0,100,0.00,,,0.04,0.000000,,2013-01-14 12:12:00,
2013-01-14 07:13:00,54.0,54.0,-100.00,NW,313,7.0,16.0,100,0.00,,,0.04,0.000000,,2013-01-14 12:13:00,
2013-01-14 07:33:00,54.0,54.0,-100.00,NW,313,7.0,16.0,100,0.00,,,0.04,0.000000,,2013-01-14 12:33:00,
2013-01-14 07:43:00,54.0,54.0,-100.00,NW,313,7.0,16.0,100,0.00,,,0.04,0.000000,,2013-01-14 12:43:00,
2013-01-14 07:53:00,54.0,54.0,-100.00,NW,313,7.0,16.0,100,0.00,,,0.04,0.000000,,2013-01-14 12:53:00,
2013-01-14 08:03:00,54.0,54.0,-100.00,NW,313,7.0,16.0,100,0.00,,,0.04,0.000000,,2013-01-14 13:03:00,
2013-01-14 08:13:00,54.0,48.0,-100.00,NNW,345,6.0,12.0,81,0.00,,,0.04,1.000000,,2013-01-14 13:13:00,
2013-01-14 08:34:00,54.0,48.0,-100.00,NNW,345,6.0,12.0,81,0.00,,,0.04,1.000000,,2013-01-14 13:34:00,
2013-01-14 08:43:00,54.0,48.0,-100.00,NNW,345,6.0,12.0,81,0.00,,,0.04,1.000000,,2013-01-14 13:43:00,
2013-01-14 08:53:00,54.0,48.0,-100.00,NNW,345,6.0,12.0,81,0.00,,,0.04,1.000000,,2013-01-14 13:53:00,
2013-01-14 09:03:00,54.0,48.0,-100.00,NNW,345,6.0,12.0,81,0.00,,,0.04,1.000000,,2013-01-14 14:03:00,
2013-01-14 09:33:00,53.0,43.0,-100.00,NW,316,5.0,9.0,68,0.00,,,0.04,15.000000,,2013-01-14 14:33:00,
2013-01-14 09:43:00,53.0,43.0,-100.00,NW,316,5.0,9.0,68,0.00,,,0.04,15.000000,,2013-01-14 14:43:00,
2013-01-14 09:53:00,53.0,43.0,-100.00,NW,316,5.0,9.0,68,0.00,,,0.04,15.000000,,2013-01-14 14:53:00,
2013-01-14 10:03:00,53.0,43.0,-100.00,NW,316,5.0,9.0,68,0.00,,,0.04,15.000000,,2013-01-14 15:03:00,
2013-01-14 10:12:00,53.0,43.0,-100.00,NW,316,5.0,9.0,68,0.00,,,0.04,15.000000,,2013-01-14 15:12:00,
2013-01-14 10:13:00,53.0,41.0,-100.00,NW,321,7.0,13.0,63,0.00,,,0.04,33.000000,,2013-01-14 15:13:00,
2013-01-14 10:34:00,53.0,41.0,-100.00,NW,321,7.0,13.0,63,0.00,,,0.04,33.000000,,2013-01-14 15:34:00,
2013-01-14 10:43:00,53.0,41.0,-100.00,NW,321,7.0,13.0,63,0.00,,,0.04,33.000000,,2013-01-14 15:43:00,
2013-01-14 10:53:00,53.0,41.0,-100.00,NW,321,7.0,13.0,63,0.00,,,0.04,33.000000,,2013-01-14 15:53:00,
2013-01-14 11:03:00,53.0,41.0,-100.00,NW,321,7.0,13.0,63,0.00,,,0.04,33.000000,,2013-01-14 16:03:00,
2013-01-14 11:33:00,52.0,41.0,-100.00,NNW,337,7.0,17.0,66,0.00,,,0.04,97.000000,,2013-01-14 16:33:00,
2013-01-14 11:43:00,52.0,41.0,-100.00,NNW,337,7.0,17.0,66,0.00,,,0.04,97.000000,,2013-01-14 16:43:00,
2013-01-14 11:53:00,52.0,41.0,-100.00,NNW,337,7.0,17.0,66,0.00,,,0.04,97.000000,,2013-01-14 16:53:00,
2013-01-14 12:03:00,52.0,41.0,-100.00,NNW,337,7.0,17.0,66,0.00,,,0.04,97.000000,,2013-01-14 17:03:00,
2013-01-14 12:12:00,52.0,41.0,-100.00,NNW,337,7.0,17.0,66,0.00,,,0.04,97.000000,,2013-01-14 17:12:00,
2013-01-14 12:13:00,51.0,38.0,-100.00,NNW,331,7.0,16.0,62,0.00,,,0.04,168.000000,,2013-01-14 17:13:00,
2013-01-14 12:34:00,51.0,38.0,-100.00,NNW,331,7.0,16.0,62,0.00,,,0.04,168.000000,,2013-01-14 17:34:00,
2013-01-14 12:43:00,51.0,38.0,-100.00,NNW,331,7.0,16.0,62,0.00,,,0.04,168.000000,,2013-01-14 17:43:00,
2013-01-14 12:54:00,51.0,38.0,-100.00,NNW,331,7.0,16.0,62,0.00,,,0.04,168.000000,,2013-01-14 17:54:00,
2013-01-14 13:03:00,51.0,38.0,-100.00,NNW,331,7.0,16.0,62,0.00,,,0.04,168.000000,,2013-01-14 18:03:00,
2013-01-14 13:33:00,51.0,38.0,-100.00,NW,325,7.0,15.0,60,0.00,,,0.04,147.000000,,2013-01-14 18:33:00,
2013-01-14 13:43:00,51.0,38.0,-100.00,NW,325,7.0,15.0,60,0.00,,,0.04,147.000000,,2013-01-14 18:43:00,
2013-01-14 13:53:00,51.0,38.0,-100.00,NW,325,7.0,15.0,60,0.00,,,0.04,147.000000,,2013-01-14 18:53:00,
2013-01-14 14:03:00,51.0,38.0,-100.00,NW,325,7.0,15.0,60,0.00,,,0.04,147.000000,,2013-01-14 19:03:00,
2013-01-14 14:12:00,51.0,38.0,-100.00,NW,325,7.0,15.0,60,0.00,,,0.04,147.000000,,2013-01-14 19:12:00,
2013-01-14 14:13:00,50.0,36.0,-100.00,NNW,338,9.0,14.0,59,0.00,,,0.04,100.000000,,2013-01-14 19:13:00,
2013-01-14 14:43:00,50.0,36.0,-100.00,NNW,338,9.0,14.0,59,0.00,,,0.04,100.000000,,2013-01-14 19:43:00,
2013-01-14 14:53:00,50.0,36.0,-100.00,NNW,338,9.0,14.0,59,0.00,,,0.04,100.000000,,2013-01-14 19:53:00,
2013-01-14 15:04:00,50.0,36.0,-100.00,NNW,338,9.0,14.0,59,0.00,,,0.04,100.000000,,2013-01-14 20:04:00,
2013-01-14 15:13:00,48.0,35.0,-100.00,North,358,8.0,14.0,60,0.00,,,0.04,82.000000,,2013-01-14 20:13:00,
2013-01-14 15:33:00,48.0,35.0,-100.00,North,358,8.0,14.0,60,0.00,,,0.04,82.000000,,2013-01-14 20:33:00,
2013-01-14 15:43:00,48.0,35.0,-100.00,North,358,8.0,14.0,60,0.00,,,0.04,82.000000,,2013-01-14 20:43:00,
2013-01-14 15:53:00,48.0,35.0,-100.00,North,358,8.0,14.0,60,0.00,,,0.04,82.000000,,2013-01-14 20:53:00,
2013-01-14 16:03:00,48.0,35.0,-100.00,North,358,8.0,14.0,60,0.00,,,0.04,82.000000,,2013-01-14 21:03:00,
2013-01-14 16:33:00,47.0,32.0,-100.00,NNW,340,6.0,16.0,55,0.00,,,0.04,44.000000,,2013-01-14 21:33:00,
2013-01-14 16:43:00,47.0,32.0,-100.00,NNW,340,6.0,16.0,55,0.00,,,0.04,44.000000,,2013-01-14 21:43:00,
2013-01-14 16:53:00,47.0,32.0,-100.00,NNW,340,6.0,16.0,55,0.00,,,0.04,44.000000,,2013-01-14 21:53:00,
2013-01-14 17:03:00,47.0,32.0,-100.00,NNW,340,6.0,16.0,55,0.00,,,0.04,44.000000,,2013-01-14 22:03:00,
2013-01-14 17:12:00,47.0,32.0,-100.00,NNW,340,6.0,16.0,55,0.00,,,0.04,44.000000,,2013-01-14 22:12:00,
2013-01-14 17:33:00,47.0,32.0,-100.00,NNW,345,5.0,9.0,55,0.00,,,-99.99,10.000000,,2013-01-14 22:33:00,
2013-01-14 17:43:00,47.0,32.0,-100.00,NNW,345,5.0,9.0,55,0.00,,,-99.99,10.000000,,2013-01-14 22:43:00,
2013-01-14 17:53:00,47.0,32.0,-100.00,NNW,345,5.0,9.0,55,0.00,,,-99.99,10.000000,,2013-01-14 22:53:00,
2013-01-14 18:03:00,47.0,32.0,-100.00,NNW,345,5.0,9.0,55,0.00,,,-99.99,10.000000,,2013-01-14 23:03:00,
2013-01-14 18:12:00,47.0,32.0,-100.00,NNW,345,5.0,9.0,55,0.00,,,-99.99,10.000000,,2013-01-14 23:12:00,
2013-01-14 18:33:00,46.0,32.0,-100.00,NNW,331,7.0,13.0,58,0.00,,,0.04,0.000000,,2013-01-14 23:33:00,
2013-01-14 18:43:00,46.0,32.0,-100.00,NNW,331,7.0,13.0,58,0.00,,,0.04,0.000000,,2013-01-14 23:43:00,
2013-01-14 18:53:00,46.0,32.0,-100.00,NNW,331,7.0,13.0,58,0.00,,,0.04,0.000000,,2013-01-14 23:53:00,
2013-01-14 19:03:00,46.0,32.0,-100.00,NNW,331,7.0,13.0,58,0.00,,,0.04,0.000000,,2013-01-15 00:03:00,
2013-01-14 19:12:00,46.0,32.0,-100.00,NNW,331,7.0,13.0,58,0.00,,,0.04,0.000000,,2013-01-15 00:12:00,
2013-01-14 19:33:00,44.0,31.0,-100.00,NNW,341,7.0,16.0,60,0.00,,,0.04,0.000000,,2013-01-15 00:33:00,
2013-01-14 19:43:00,44.0,31.0,-100.00,NNW,341,7.0,16.0,60,0.00,,,0.04,0.000000,,2013-01-15 00:43:00,
2013-01-14 19:53:00,44.0,31.0,-100.00,NNW,341,7.0,16.0,60,0.00,,,0.04,0.000000,,2013-01-15 00:53:00,
2013-01-14 20:02:00,44.0,31.0,-100.00,NNW,341,7.0,16.0,60,0.00,,,0.04,0.000000,,2013-01-15 01:02:00,
2013-01-14 20:12:00,44.0,31.0,-100.00,NNW,341,7.0,16.0,60,0.00,,,0.04,0.000000,,2013-01-15 01:12:00,
2013-01-14 21:33:00,40.0,34.0,-100.00,NNW,341,4.0,8.0,80,-99.99,,,0.08,0.000000,,2013-01-15 02:33:00,
2013-01-14 21:43:00,40.0,34.0,-100.00,NNW,341,4.0,8.0,80,-99.99,,,0.08,0.000000,,2013-01-15 02:43:00,
2013-01-14 21:53:00,40.0,34.0,-100.00,NNW,341,4.0,8.0,80,-99.99,,,0.08,0.000000,,2013-01-15 02:53:00,
2013-01-14 22:03:00,40.0,34.0,-100.00,NNW,341,4.0,8.0,80,-99.99,,,0.08,0.000000,,2013-01-15 03:03:00,
2013-01-14 22:12:00,40.0,34.0,-100.00,NNW,341,4.0,8.0,80,-99.99,,,0.08,0.000000,,2013-01-15 03:12:00,
2013-01-14 22:33:00,39.0,37.0,-100.00,NNW,334,4.0,7.0,91,0.03,,,0.11,0.000000,,2013-01-15 03:33:00,
2013-01-14 22:43:00,39.0,37.0,-100.00,NNW,334,4.0,7.0,91,0.03,,,0.11,0.000000,,2013-01-15 03:43:00,
2013-01-14 22:53:00,39.0,37.0,-100.00,NNW,334,4.0,7.0,91,0.03,,,0.11,0.000000,,2013-01-15 03:53:00,
2013-01-14 23:03:00,39.0,37.0,-100.00,NNW,334,4.0,7.0,91,0.03,,,0.11,0.000000,,2013-01-15 04:03:00,
2013-01-14 23:12:00,39.0,37.0,-100.00,NNW,334,4.0,7.0,91,0.03,,,0.11,0.000000,,2013-01-15 04:12:00,
2013-01-14 23:33:00,39.0,36.0,-100.00,NNW,327,2.0,7.0,90,0.04,,,0.15,0.000000,,2013-01-15 04:33:00,
2013-01-14 23:43:00,39.0,36.0,-100.00,NNW,327,2.0,7.0,90,0.04,,,0.15,0.000000,,2013-01-15 04:43:00,
2013-01-14 23:52:00,39.0,36.0,-100.00,NNW,327,2.0,7.0,90,0.04,,,0.15,0.000000,,2013-01-15 04:52:00,